Location: Noyers
(47.2770°N, 1.4032°E)
Time: 23:19:04
(UTC+00:00)

Cosmos 1464 Rocket - Pass Details

Date: 15 May 2026
Orbit: 952 x 999 km, 82.9° (Epoch: 11 June)

Event Time Altitude Azimuth Distance (km) Brightness Sun altitude
Exits shadow 21:18:40 19° 170° (S) 2,127 5.3 -15.4°
Maximum altitude 21:23:11 64° 94° (E) 1,058 4.0 -15.9°
Drops below altitude 10° 21:29:18 10° 14° (NNE) 2,716 6.9 -16.5°
Sets 21:31:50 0° 12° (NNE) 3,673 7.7 -16.7°
